Wappingers Falls, NY

1:22 AM EST on February 09, 2016 (GMT -0500)
Dutchess County

Weather History for KPOU - November, 2013

Change the Weather History Date:

Friday, November 22, 2013

  Actual Average Record
Temperature  
Mean Temperature 48 °F 40 °F  
Max Temperature 54 °F 50 °F 65 °F (2007)
Min Temperature 42 °F 30 °F 14 °F (1972)
Degree Days  
Heating Degree Days 17 25  
Month to date heating degree days 482 485  
Since 1 July heating degree days 970 1061  
Cooling Degree Days 0 0  
Month to date cooling degree days 0 0  
Year to date cooling degree days 829 672  
Moisture  
Dew Point 44 °F    
Average Humidity 86    
Maximum Humidity 100    
Minimum Humidity 74    
Precipitation  
Precipitation 0.14 in 0.12 in 1.74 in (1991)
Month to date precipitation 0.81 2.52  
Year to date precipitation 34.96 42.05  
Sea Level Pressure  
Sea Level Pressure 30.09 in    
Wind  
Wind Speed 2 mph (SW)    
Max Wind Speed 8 mph    
Max Gust Speed -    
Visibility 7 miles    
Events Rain    
T = Trace of Precipitation, MM = Missing Value Source: NWS Daily Summary

Daily Weather History Graph

Daily Weather History Graph

Search for Another Location

Airport or City:

Trip Planner

Search our weather history database for the weather conditions in past years. The results will help you decide how hot, cold, wet, or windy it might be!

Date:

Astronomy

Nov. 22, 2013 Rise Set
Actual Time 6:53 AM EST 4:30 PM EST
Civil Twilight 6:22 AM EST 5:00 PM EST
Nautical Twilight 5:48 AM EST 5:34 PM EST
Astronomical Twilight 5:15 AM EST 6:07 PM EST
Moon 9:00 PM EST (11/22) 10:34 AM EST (11/22)
Length of Visible Light 10h 37m
Length of Day
9h 36m
Waning Gibbous, 78% of the Moon is Illuminated
Nov 22
Waning Gibbous
Nov 25
Last Quarter
Dec 2
New
Dec 9
First Quarter
Dec 17
Full

Hourly Weather History & Observations

Time (EST) Temp. Windchill Dew Point Humidity Pressure Visibility Wind Dir Wind Speed Gust Speed Precip Events Conditions
12:53 AM 42.1 °F - 36.0 °F 79% 30.34 in 10.0 mi Calm Calm - 0.00 in Rain Light Rain
1:53 AM 42.1 °F - 37.0 °F 82% 30.33 in 10.0 mi Calm Calm - 0.00 in   Overcast
2:19 AM 42.8 °F - 37.4 °F 81% 30.32 in 10.0 mi Calm Calm - N/A   Overcast
2:53 AM 42.1 °F 40.2 °F 39.0 °F 89% 30.28 in 10.0 mi ESE 3.5 mph - N/A   Overcast
3:03 AM 42.8 °F - 37.4 °F 81% 30.28 in 10.0 mi Calm Calm - N/A   Overcast
3:53 AM 43.0 °F - 37.9 °F 82% 30.27 in 10.0 mi Calm Calm - 0.00 in   Overcast
4:53 AM 44.1 °F - 39.9 °F 85% 30.25 in 10.0 mi Calm Calm - 0.00 in Rain Light Rain
5:53 AM 43.0 °F - 41.0 °F 93% 30.22 in 8.0 mi Calm Calm - 0.01 in Rain Light Rain
6:46 AM 42.8 °F - 42.8 °F 100% 30.21 in 2.5 mi Calm Calm - 0.04 in Rain Light Rain
6:53 AM 44.1 °F - 42.1 °F 93% 30.20 in 2.5 mi Calm Calm - 0.05 in Rain Light Rain
7:53 AM 44.1 °F - 43.0 °F 96% 30.18 in 2.0 mi Calm Calm - 0.03 in Rain Light Rain
8:53 AM 45.0 °F - 44.1 °F 97% 30.16 in 2.0 mi Calm Calm - 0.04 in Rain Light Rain
9:10 AM 44.6 °F - 44.6 °F 100% 30.16 in 2.0 mi Calm Calm - 0.00 in   Overcast
9:53 AM 46.0 °F - 44.1 °F 93% 30.14 in 2.0 mi Calm Calm - 0.01 in Rain Light Rain
10:53 AM 48.0 °F - 46.0 °F 93% 30.10 in 2.0 mi Calm Calm - 0.00 in Rain Light Rain
11:05 AM 48.2 °F - 46.4 °F 93% 30.10 in 2.0 mi Variable 4.6 mph - 0.00 in   Overcast
11:19 AM 48.2 °F - 46.4 °F 93% 30.10 in 2.0 mi SW 6.9 mph - 0.00 in   Overcast
11:39 AM 48.2 °F - 46.4 °F 93% 30.08 in 4.0 mi SW 5.8 mph - 0.00 in   Overcast
11:46 AM 48.2 °F - 46.4 °F 93% 30.07 in 4.0 mi SSW 6.9 mph - 0.00 in   Overcast
11:53 AM 50.0 °F - 46.0 °F 86% 30.07 in 4.0 mi SW 8.1 mph - 0.00 in   Overcast
12:10 PM 50.0 °F - 46.4 °F 87% 30.05 in 4.0 mi Variable 6.9 mph - N/A   Overcast
12:53 PM 52.0 °F - 46.0 °F 80% 30.04 in 9.0 mi SW 5.8 mph - N/A   Overcast
1:01 PM 51.8 °F - 46.4 °F 82% 30.04 in 9.0 mi SW 6.9 mph - N/A   Overcast
1:53 PM 53.1 °F - 46.0 °F 77% 30.02 in 10.0 mi SW 3.5 mph - N/A   Overcast
2:51 PM 53.6 °F - 46.4 °F 77% 30.00 in 10.0 mi Calm Calm - N/A   Mostly Cloudy
2:53 PM 54.0 °F - 46.0 °F 75% 30.00 in 10.0 mi West 5.8 mph - N/A   Scattered Clouds
3:53 PM 53.1 °F - 45.0 °F 74% 29.98 in 10.0 mi West 6.9 mph - N/A   Overcast
4:53 PM 52.0 °F - 46.0 °F 80% 29.97 in 10.0 mi Calm Calm - N/A   Overcast
5:53 PM 50.0 °F - 46.0 °F 86% 29.95 in 10.0 mi Calm Calm - N/A   Overcast
6:53 PM 51.1 °F - 46.0 °F 83% 29.94 in 10.0 mi SW 3.5 mph - N/A   Overcast
7:20 PM 51.8 °F - 46.4 °F 82% 29.93 in 10.0 mi West 3.5 mph - N/A   Overcast
7:53 PM 51.1 °F - 46.0 °F 83% 29.92 in 10.0 mi SW 3.5 mph - N/A   Overcast
8:23 PM 51.8 °F - 46.4 °F 82% 29.92 in 10.0 mi SSW 3.5 mph - N/A   Overcast
8:53 PM 52.0 °F - 46.0 °F 80% 29.91 in 10.0 mi SSW 4.6 mph - N/A   Overcast
9:53 PM 52.0 °F - 46.9 °F 83% 29.89 in 10.0 mi SW 5.8 mph - N/A   Overcast
10:53 PM 53.1 °F - 46.9 °F 80% 29.88 in 10.0 mi SW 3.5 mph - N/A   Overcast
11:53 PM 52.0 °F - 45.0 °F 77% 29.88 in 10.0 mi WSW 5.8 mph - N/A   Overcast